Location: Lynch Observatory
(39.9540°N, 75.1861°W)
Time: 10:34:35
(UTC-04:00)

ZACube-1 - Pass Details

Date: 25 April 2024
Orbit: 566 x 635 km, 97.7° (Epoch: 25 May)

Event Time Altitude Azimuth Distance (km) Brightness Sun altitude
Rises 03:42:18 0° 16° (NNE) 2,929 ? -24.5°
Reaches altitude 10° 03:44:32 10° 20° (NNE) 2,023 ? -24.2°
Maximum altitude 03:48:53 59° 100° (E) 740 ? -23.6°
Enters shadow 03:49:51 47° 149° (SSE) 847 ? -23.5°
